User: anonymous   Login
Location: Unspecified
(0.0000°N, 0.0000°E)
Time: 10:37:01
(UTC+00:00)
Language:

GALILEO 12 (269) - Orbit

View from above orbital plane
View from above orbital plane
View from above satellite
View from above satellite

Ground track
Ground track

The orbit data is extracted from the following two-line orbital elements,

1 41174U 15079A   22272.27271314  .00000048  00000-0  00000+0 0  9992
2 41174  55.1810 138.5485 0002617 335.3036  24.7934  1.70474103 42228
Epoch (UTC): 29 September 2022 06:32:42
Eccentricity: 0.0002617
inclination: 55.1810°
perigee height: 23214 km
apogee height: 23229 km
right ascension of ascending node: 138.5485°
argument of perigee: 335.3036°
revolutions per day: 1.70474103
mean anomaly at epoch: 24.7934°
orbit number at epoch: 4222

The dashed part of the orbit path shows where the satellite is in the earth's shadow,  

DLR